GW1728 Weather Reports


Display with metric or nautical units.
time (UTC)temp
F
wind
direction
speed
MPH
gust
MPH
rain 1hr
in
rain 24hr
in
rain mn
in
humidity
%
barometer
mb
20260905230556 73 256 1.0 1.0 0.00 0.09 0.09 46 1019.5
20260905230055 73 255 1.0 1.0 0.00 0.09 0.09 46 1019.7
20260905225555 73 98 0.0 0.0 0.00 0.09 0.09 46 1019.7
20260905225050 73 258 1.0 1.0 0.00 0.09 0.09 47 1019.7
20260905224549 73 265 1.0 1.0 0.00 0.09 0.09 46 1019.8
20260905224049 73 3 3.0 3.0 0.00 0.09 0.09 45 1019.5
20260905223547 73 17 4.0 5.0 0.00 0.09 0.09 45 1019.5
20260905223042 73 14 2.0 5.0 0.00 0.09 0.09 45 1019.7
20260905222543 73 355 3.0 5.0 0.00 0.09 0.09 44 1019.6
20260905222038 73 11 1.0 5.0 0.00 0.09 0.09 45 1019.6
20260905221534 73 261 1.0 2.0 0.00 0.09 0.09 45 1019.7
20260905221030 73 327 2.0 3.0 0.00 0.09 0.09 45 1019.7
20260905220526 72 11 3.0 3.0 0.00 0.09 0.09 46 1019.8
20260905220022 74 7 2.0 6.0 0.00 0.09 0.09 44 1019.9
20260905215521 73 265 2.0 3.0 0.00 0.09 0.09 46 1019.9
20260905215017 73 19 4.0 7.0 0.00 0.09 0.09 45 1019.9
20260905214513 73 242 0.0 1.0 0.00 0.09 0.09 45 1020.0
20260905214008 73 255 2.0 2.0 0.00 0.09 0.09 45 1020.0
20260905213503 74 299 2.0 2.0 0.00 0.09 0.09 44 1020.1
20260905212958 73 144 1.0 1.0 0.00 0.09 0.09 46 1020.0
20260905212453 72 328 3.0 3.0 0.00 0.09 0.09 48 1020.0
20260905211952 71 288 2.0 2.0 0.00 0.09 0.09 47 1020.0
20260905211448 72 1 6.0 8.0 0.00 0.09 0.09 46 1020.0
20260905210943 72 272 1.0 1.0 0.00 0.09 0.09 48 1020.2
20260905210439 73 11 3.0 6.0 0.00 0.09 0.09 43 1020.0
20260905205938 72 286 2.0 2.0 0.00 0.09 0.09 43 1020.1
20260905205433 71 32 3.0 3.0 0.00 0.09 0.09 44 1020.2
20260905204932 71 347 2.0 2.0 0.00 0.09 0.09 45 1020.2
20260905204428 71 51 1.0 2.0 0.00 0.09 0.09 47 1020.3
20260905203927 71 351 2.0 2.0 0.00 0.09 0.09 45 1020.3
20260905203422 70 169 1.0 2.0 0.00 0.09 0.09 48 1020.4
20260905202918 71 26 5.0 6.0 0.00 0.09 0.09 47 1020.6
20260905202413 71 32 6.0 7.0 0.00 0.09 0.09 46 1020.6
20260905201909 71 145 0.0 1.0 0.00 0.09 0.09 48 1020.4
20260905201404 71 195 0.0 0.0 0.00 0.09 0.09 49 1020.4
20260905200903 69 108 3.0 3.0 0.00 0.09 0.09 51 1020.6
20260905200359 69 75 3.0 5.0 0.00 0.09 0.09 52 1020.4
20260905195857 69 53 4.0 6.0 0.00 0.09 0.09 51 1020.6
20260905195353 70 78 3.0 5.0 0.00 0.09 0.09 52 1020.4
20260905194848 68 156 1.0 3.0 0.00 0.09 0.09 55 1020.6
20260905194348 68 156 4.0 5.0 0.00 0.09 0.09 55 1020.6
20260905193848 70 179 1.0 2.0 0.00 0.09 0.09 56 1020.6
20260905193342 69 137 4.0 6.0 0.00 0.09 0.09 55 1020.6
20260905192838 68 273 1.0 1.0 0.00 0.09 0.09 53 1020.7
20260905192334 69 295 1.0 1.0 0.00 0.09 0.09 53 1020.8
20260905191833 68 233 0.0 0.0 0.00 0.09 0.09 56 1020.9
20260905191332 68 247 2.0 3.0 0.00 0.09 0.09 56 1021.0
20260905190830 67 241 0.0 1.0 0.00 0.09 0.09 59 1020.8
20260905190324 66 228 3.0 3.0 0.00 0.09 0.09 58 1021.0
20260905185818 66 244 1.0 1.0 0.00 0.09 0.09 59 1020.9
20260905185313 67 227 5.0 6.0 0.00 0.09 0.09 59 1021.1
20260905184812 67 260 1.0 2.0 0.00 0.09 0.09 59 1021.1
20260905184312 66 16 1.0 1.0 0.00 0.09 0.09 60 1021.2
20260905183810 66 16 3.0 3.0 0.00 0.09 0.09 60 1021.2
20260905183306 66 254 2.0 3.0 0.00 0.09 0.09 60 1021.4
20260905182800 66 328 2.0 2.0 0.00 0.09 0.09 61 1021.4
20260905182259 66 227 1.0 2.0 0.00 0.09 0.09 60 1021.4
20260905181754 66 236 0.0 0.0 0.00 0.09 0.09 65 1021.5
20260905181249 66 229 2.0 3.0 0.00 0.09 0.09 60 1021.5
20260905180749 65 208 1.0 1.0 0.00 0.09 0.09 64 1021.5
20260905180243 64 212 1.0 2.0 0.00 0.09 0.09 62 1021.7
20260905175738 64 219 3.0 5.0 0.00 0.09 0.09 63 1021.5
20260905175233 64 180 2.0 2.0 0.00 0.09 0.09 66 1021.4
20260905174728 64 83 3.0 3.0 0.00 0.09 0.09 64 1021.5
20260905174224 63 176 1.0 2.0 0.00 0.09 0.09 66 1021.7
20260905173720 63 236 1.0 2.0 0.00 0.09 0.09 67 1021.7
20260905173215 62 231 2.0 2.0 0.00 0.09 0.09 69 1021.8
20260905172715 62 215 1.0 1.0 0.00 0.09 0.09 68 1021.7
20260905172215 61 194 2.0 2.0 0.00 0.09 0.09 70 1021.8
20260905171711 61 210 3.0 3.0 0.00 0.09 0.09 69 1021.7
20260905171206 61 231 1.0 2.0 0.00 0.09 0.09 75 1021.7
20260905170703 61 238 2.0 2.0 0.00 0.09 0.09 70 1021.8
20260905170158 61 207 0.0 0.0 0.00 0.09 0.09 73 1021.5
20260905165658 60 213 2.0 2.0 0.00 0.09 0.09 73 1021.8
20260905165153 60 202 3.0 3.0 0.00 0.09 0.09 75 1021.5
20260905164648 60 220 2.0 3.0 0.00 0.09 0.09 74 1021.7
20260905164147 60 214 1.0 1.0 0.00 0.09 0.09 76 1021.8
20260905163643 60 190 1.0 1.0 0.00 0.09 0.09 75 1021.5
20260905163139 60 162 0.0 0.0 0.00 0.09 0.09 75 1021.8
20260905162635 60 4 1.0 1.0 0.00 0.09 0.09 78 1021.9
20260905162134 59 321 0.0 0.0 0.00 0.09 0.09 80 1021.7
20260905161629 59 272 0.0 0.0 0.00 0.09 0.09 80 1021.3
20260905161127 59 258 0.0 0.0 0.00 0.09 0.09 81 1021.4
20260905160626 59 234 0.0 0.0 0.00 0.09 0.09 85 1021.4
20260905160121 57 256 0.0 1.0 0.00 0.09 0.09 87 1021.7
20260905155620 58 3 2.0 2.0 0.00 0.09 0.09 86 1021.3
20260905155119 56 218 2.0 2.0 0.00 0.09 0.09 89 1021.7
20260905154614 56 232 1.0 1.0 0.00 0.09 0.09 89 1021.8
20260905154110 56 234 3.0 3.0 0.00 0.09 0.09 89 1021.9
20260905153606 56 230 2.0 2.0 0.00 0.09 0.09 89 1021.7
20260905153100 56 215 0.0 0.0 0.00 0.09 0.09 89 1021.7
20260905152555 55 214 0.0 0.0 0.00 0.09 0.09 88 1021.7
20260905152050 55 218 0.0 0.0 0.00 0.09 0.09 88 1021.5
20260905151545 55 225 0.0 0.0 0.00 0.09 0.09 89 1021.4
20260905151040 55 225 2.0 2.0 0.00 0.09 0.09 88 1021.8
20260905150536 55 230 0.0 0.0 0.00 0.09 0.09 89 1021.4
20260905150033 55 229 0.0 0.0 0.00 0.09 0.09 89 1021.5
20260905145527 55 230 0.0 0.0 0.00 0.09 0.09 89 1021.5
20260905145026 55 238 0.0 0.0 0.00 0.09 0.09 89 1021.3
20260905144522 55 258 1.0 1.0 0.00 0.09 0.09 89 1021.1
20260905144021 55 262 0.0 1.0 0.00 0.09 0.09 88 1021.2
20260905143520 55 206 0.0 0.0 0.00 0.09 0.09 90 1021.1
20260905143015 54 219 0.0 1.0 0.00 0.09 0.09 90 1020.8
20260905142514 54 206 0.0 0.0 0.07 0.09 0.09 91 1021.1
20260905142009 53 211 1.0 1.0 0.07 0.09 0.09 92 1021.3
20260905141503 53 215 0.0 0.0 0.00 0.08 0.08 92 1021.2
20260905141000 53 239 0.0 0.0 0.00 0.08 0.08 93 1020.9
20260905140455 53 237 0.0 0.0 0.00 0.08 0.08 93 1020.8
20260905135953 53 349 3.0 5.0 0.00 0.08 0.08 93 1020.4
20260905135449 53 12 3.0 5.0 0.00 0.08 0.08 93 1020.2
20260905134944 53 356 2.0 2.0 0.00 0.08 0.08 93 1020.2
20260905134444 53 359 4.0 5.0 0.00 0.08 0.08 93 1020.4
20260905133943 53 333 2.0 2.0 0.07 0.08 0.08 92 1020.6
20260905133438 52 249 0.0 0.0 0.07 0.08 0.08 92 1021.2
20260905132938 52 255 0.0 0.0 0.05 0.07 0.07 91 1021.3
20260905132433 52 260 0.0 0.0 0.12 0.07 0.07 91 1021.5
20260905131928 53 283 0.0 0.0 0.19 0.06 0.06 90 1021.4
20260905131424 53 141 0.0 1.0 0.24 0.05 0.05 90 1021.7
20260905130924 53 217 3.0 3.0 0.12 0.03 0.03 90 1021.5
20260905130418 53 72 0.0 1.0 0.00 0.01 0.01 90 1021.3
20260905125918 53 348 0.0 1.0 0.00 0.01 0.01 90 1021.1
20260905125413 53 278 1.0 2.0 0.00 0.01 0.01 89 1021.1
20260905124908 53 251 0.0 0.0 0.00 0.01 0.01 89 1020.8
20260905124405 53 265 0.0 1.0 0.00 0.01 0.01 88 1020.2
20260905123904 53 247 0.0 0.0 0.05 0.01 0.01 88 1020.1
20260905123401 53 254 0.0 0.0 0.05 0.01 0.01 88 1019.7
20260905122856 53 269 0.0 0.0 0.00 0.00 0.00 88 1019.7
20260905122355 53 270 0.0 0.0 0.00 0.00 0.00 88 1020.0
20260905121851 53 230 0.0 0.0 0.00 0.00 0.00 87 1020.6
20260905121347 53 229 0.0 0.0 0.00 0.00 0.00 86 1020.6
20260905120846 53 230 0.0 0.0 0.00 0.00 0.00 86 1020.3
20260905120340 54 234 0.0 0.0 0.00 0.00 0.00 85 1019.9
20260905115836 54 234 0.0 0.0 0.00 0.00 0.00 83 1019.9
20260905115334 54 253 0.0 1.0 0.00 0.00 0.00 81 1020.0
20260905114829 54 244 0.0 1.0 0.00 0.00 0.00 80 1020.6
20260905114328 54 236 0.0 0.0 0.00 0.00 0.00 79 1020.6
20260905113828 54 237 0.0 0.0 0.00 0.00 0.00 79 1020.3
20260905113324 54 281 0.0 0.0 0.00 0.00 0.00 79 1020.3
20260905112819 54 225 0.0 0.0 0.00 0.00 0.00 79 1020.2
20260905112313 54 231 0.0 0.0 0.00 0.00 0.00 79 1020.1
20260905111809 54 239 0.0 0.0 0.00 0.00 0.00 78 1020.1
20260905111303 54 282 1.0 1.0 0.00 0.00 0.00 77 1019.7
20260905110802 55 202 0.0 0.0 0.00 0.00 0.00 77 1019.6
20260905110256 55 285 1.0 1.0 0.00 0.00 0.00 75 1019.5
20260905105752 54 314 2.0 3.0 0.00 0.00 0.00 75 1019.4
20260905105251 54 193 0.0 0.0 0.00 0.00 0.00 76 1019.8
20260905104745 54 289 1.0 1.0 0.00 0.00 0.00 77 1019.5
20260905104242 53 16 0.0 0.0 0.00 0.00 0.00 77 1019.5
20260905103742 53 251 0.0 0.0 0.00 0.00 0.00 78 1019.5
20260905103237 53 285 0.0 0.0 0.00 0.00 0.00 79 1019.2
20260905102733 52 268 1.0 1.0 0.00 0.00 0.00 79 1019.4
20260905102230 52 207 0.0 0.0 0.00 0.00 0.00 79 1019.2
20260905101728 53 228 0.0 0.0 0.00 0.00 0.00 79 1019.0
20260905101227 52 272 0.0 1.0 0.00 0.00 0.00 79 1018.7
20260905100723 52 259 0.0 1.0 0.00 0.00 0.00 80 1019.0
20260905100218 52 200 0.0 0.0 0.00 0.00 0.00 81 1019.5
20260905095718 52 187 0.0 0.0 0.00 0.00 0.00 81 1019.1
20260905095212 51 331 2.0 3.0 0.00 0.00 0.00 82 1019.1
20260905094707 51 211 0.0 0.0 0.00 0.00 0.00 82 1019.6
20260905094207 51 208 0.0 0.0 0.00 0.00 0.00 82 1018.9
20260905093701 51 223 0.0 0.0 0.00 0.00 0.00 81 1018.6
20260905093157 51 242 0.0 0.0 0.00 0.00 0.00 80 1018.6
20260905092653 51 208 0.0 0.0 0.00 0.00 0.00 80 1018.6
20260905092148 52 246 0.0 0.0 0.00 0.00 0.00 79 1018.8
20260905091647 52 346 0.0 1.0 0.00 0.00 0.00 78 1019.0
20260905091142 53 237 0.0 0.0 0.00 0.00 0.00 76 1019.2
20260905090636 53 249 1.0 1.0 0.00 0.00 0.00 77 1019.4
20260905090132 52 250 0.0 0.0 0.00 0.00 0.00 78 1018.9
20260905085630 52 289 3.0 3.0 0.00 0.00 0.00 78 1019.0
20260905085126 52 263 0.0 0.0 0.00 0.00 0.00 78 1018.8
20260905084625 52 232 0.0 1.0 0.00 0.00 0.00 77 1018.9
20260905084115 52 235 3.0 3.0 0.00 0.00 0.00 79 1018.6
20260905083615 51 238 0.0 0.0 0.00 0.00 0.00 80 1018.3
20260905083111 51 238 0.0 0.0 0.00 0.00 0.00 81 1018.2
20260905082607 51 242 0.0 0.0 0.00 0.00 0.00 80 1018.3
20260905082102 51 241 0.0 0.0 0.00 0.00 0.00 80 1018.4
20260905081601 51 242 0.0 0.0 0.00 0.00 0.00 79 1018.3
20260905081051 52 246 0.0 0.0 0.00 0.00 0.00 78 1018.0
20260905080550 52 252 0.0 0.0 0.00 0.00 0.00 77 1018.0
20260905080045 53 347 0.0 0.0 0.00 0.00 0.00 75 1018.4
20260905075538 53 43 0.0 0.0 0.00 0.00 0.00 73 1018.0
20260905075033 53 55 0.0 0.0 0.00 0.00 0.00 73 1017.6
20260905074527 53 55 0.0 0.0 0.00 0.00 0.00 73 1017.3
20260905074023 53 48 5.0 7.0 0.00 0.00 0.00 74 1017.2
20260905073518 53 22 1.0 2.0 0.00 0.00 0.00 73 1018.4
20260905073014 53 231 0.0 0.0 0.00 0.00 0.00 74 1019.1
20260905072513 52 225 0.0 0.0 0.00 0.00 0.00 75 1019.2
20260905072009 52 226 0.0 0.0 0.00 0.00 0.00 75 1019.6
20260905071505 52 226 0.0 0.0 0.00 0.00 0.00 76 1019.6
20260905071000 53 234 0.0 0.0 0.00 0.00 0.00 74 1019.6
20260905070455 53 237 0.0 0.0 0.00 0.00 0.00 73 1019.2
20260905065955 54 237 0.0 0.0 0.00 0.00 0.00 71 1019.2
20260905065454 54 245 0.0 0.0 0.00 0.00 0.00 70 1019.0
20260905064949 54 227 0.0 0.0 0.00 0.00 0.00 69 1018.8
20260905064444 54 238 0.0 0.0 0.00 0.00 0.00 69 1018.7
20260905063939 54 357 2.0 3.0 0.00 0.00 0.00 69 1018.7
20260905063434 55 255 0.0 0.0 0.00 0.00 0.00 67 1018.4
20260905062930 56 292 0.0 0.0 0.00 0.00 0.00 65 1018.3
20260905062429 56 306 0.0 0.0 0.00 0.00 0.00 63 1018.3
20260905061925 57 350 3.0 3.0 0.00 0.00 0.00 62 1018.2
20260905061425 57 348 3.0 3.0 0.00 0.00 0.00 62 1018.0
20260905060924 57 338 4.0 5.0 0.00 0.00 0.00 61 1017.8
20260905060421 56 341 3.0 5.0 0.00 0.00 0.00 63 1018.0
20260905055919 56 288 1.0 1.0 0.00 0.00 0.00 62 1018.2
20260905055415 57 293 0.0 0.0 0.00 0.00 0.00 62 1018.6
20260905054914 57 22 3.0 3.0 0.00 0.00 0.00 62 1018.2
20260905054410 57 166 1.0 1.0 0.00 0.00 0.00 63 1018.4
20260905053910 57 270 1.0 1.0 0.00 0.00 0.00 63 1018.5
20260905053405 57 279 0.0 0.0 0.00 0.00 0.00 63 1018.4
20260905052901 57 255 0.0 1.0 0.00 0.00 0.00 62 1018.5
20260905052400 58 256 0.0 0.0 0.00 0.00 0.00 60 1018.2
20260905051859 59 203 1.0 1.0 0.00 0.00 0.00 59 1018.0
20260905051356 59 226 0.0 1.0 0.00 0.00 0.00 58 1018.0
20260905050853 59 210 0.0 1.0 0.00 0.00 0.00 58 1017.8
20260905050348 60 255 0.0 1.0 0.00 0.00 0.00 57 1017.6
20260905045849 60 201 1.0 1.0 0.00 0.00 0.00 57 1017.5
20260905045343 60 287 1.0 2.0 0.00 0.00 0.00 59 1017.4
20260905044839 59 334 2.0 3.0 0.00 0.00 0.00 59 1017.5
20260905044334 59 308 1.0 5.0 0.00 0.00 0.00 61 1017.6
20260905043833 58 143 1.0 2.0 0.00 0.00 0.00 66 1018.2
20260905043328 58 238 0.0 0.0 0.00 0.00 0.00 67 1018.2
20260905042822 58 230 1.0 1.0 0.00 0.00 0.00 68 1018.0
20260905042322 59 228 0.0 0.0 0.00 0.00 0.00 67 1017.8
20260905041818 59 235 0.0 0.0 0.00 0.00 0.00 66 1017.7
20260905041314 60 235 0.0 0.0 0.00 0.00 0.00 65 1017.6
20260905040808 61 257 0.0 0.0 0.00 0.00 0.00 61 1017.3
20260905040307 61 268 0.0 0.0 0.00 0.00 0.00 58 1017.3
20260905035802 62 338 1.0 1.0 0.00 0.00 0.00 56 1017.4
20260905035258 62 221 0.0 0.0 0.00 0.00 0.00 57 1018.2
20260905034754 62 221 1.0 2.0 0.00 0.00 0.00 55 1017.8
20260905034254 61 228 0.0 0.0 0.00 0.00 0.00 57 1017.2
20260905033752 61 221 0.0 0.0 0.00 0.00 0.00 59 1017.1
20260905033249 61 209 0.0 0.0 0.00 0.00 0.00 59 1017.2
20260905032748 60 240 0.0 1.0 0.00 0.00 0.00 58 1016.8
20260905032243 60 257 0.0 0.0 0.00 0.00 0.00 58 1016.8
20260905031738 61 245 0.0 0.0 0.00 0.00 0.00 58 1016.6
20260905031234 62 248 0.0 0.0 0.00 0.00 0.00 57 1016.5
20260905030729 62 250 0.0 0.0 0.00 0.00 0.00 56 1016.4
20260905030224 63 300 0.0 1.0 0.00 0.00 0.00 54 1016.1
20260905025719 63 264 0.0 0.0 0.00 0.00 0.00 54 1016.2
20260905025214 63 248 0.0 0.0 0.00 0.00 0.00 54 1016.5
20260905024710 63 246 0.0 0.0 0.00 0.00 0.00 54 1016.6
20260905024205 63 245 0.0 0.0 0.00 0.00 0.00 53 1016.4
20260905023700 63 256 0.0 0.0 0.00 0.00 0.00 52 1016.0
20260905023155 64 256 0.0 0.0 0.00 0.00 0.00 51 1016.0
20260905022654 64 257 0.0 0.0 0.00 0.00 0.00 49 1016.0
20260905022149 64 327 0.0 0.0 0.00 0.00 0.00 49 1015.6
20260905021649 65 340 1.0 2.0 0.00 0.00 0.00 48 1015.7
20260905021145 65 9 5.0 5.0 0.00 0.00 0.00 47 1015.7
20260905020640 66 20 3.0 3.0 0.00 0.00 0.00 47 1015.5
20260905020135 66 3 1.0 1.0 0.00 0.00 0.00 47 1015.5
20260905015632 67 2 3.0 5.0 0.00 0.00 0.00 45 1015.5
20260905015127 67 301 0.0 1.0 0.00 0.00 0.00 45 1015.6
20260905014621 67 319 2.0 3.0 0.00 0.00 0.00 44 1015.4
20260905014117 67 38 1.0 1.0 0.00 0.00 0.00 44 1015.3
20260905013613 68 260 0.0 0.0 0.00 0.00 0.00 43 1015.2
20260905013109 68 275 0.0 0.0 0.00 0.00 0.00 42 1014.6
20260905012608 68 14 5.0 7.0 0.00 0.00 0.00 41 1014.2
20260905012105 68 17 8.0 10.0 0.00 0.00 0.00 41 1014.0
20260905011601 68 6 4.0 6.0 0.00 0.00 0.00 41 1014.0
20260905011057 69 15 6.0 8.0 0.00 0.00 0.00 41 1014.1
20260905010556 69 37 7.0 10.0 0.00 0.00 0.00 40 1013.9
20260905010053 70 4 3.0 5.0 0.00 0.00 0.00 41 1013.7
20260905005548 70 12 5.0 9.0 0.00 0.00 0.00 40 1013.6
20260905005043 70 19 5.0 7.0 0.00 0.00 0.00 38 1013.6
20260905004538 71 35 6.0 7.0 0.00 0.00 0.00 39 1013.3
20260905004033 71 17 7.0 9.0 0.00 0.00 0.00 39 1013.2
20260905003529 71 14 8.0 10.0 0.00 0.00 0.00 39 1013.3
20260905003025 70 28 10.0 13.0 0.00 0.00 0.00 39 1013.7
20260905002519 70 0 7.0 9.0 0.00 0.00 0.00 39 1013.6
20260905002014 72 21 4.0 6.0 0.00 0.00 0.00 38 1013.7
20260905001509 72 15 11.0 13.0 0.00 0.00 0.00 37 1013.7
20260905001003 72 351 6.0 8.0 0.00 0.00 0.00 38 1013.6
20260905000459 72 19 6.0 8.0 0.00 0.00 0.00 38 1013.6
20260904235954 73 20 5.0 6.0 0.00 0.00 0.00 39 1013.9
20260904235449 73 252 4.0 6.0 0.00 0.00 0.00 39 1013.9
20260904234944 73 8 3.0 3.0 0.00 0.00 0.00 37 1013.9
20260904234443 75 8 5.0 6.0 0.00 0.00 0.00 36 1013.7
20260904233940 75 16 6.0 14.0 0.00 0.00 0.00 36 1013.6
20260904233434 76 353 7.0 8.0 0.00 0.00 0.00 37 1013.8
20260904232931 76 22 3.0 3.0 0.00 0.00 0.00 36 1013.9
20260904232427 75 295 1.0 2.0 0.00 0.00 0.00 36 1014.1
20260904231924 76 271 2.0 3.0 0.00 0.00 0.00 37 1014.1
20260904231424 75 298 3.0 3.0 0.00 0.00 0.00 34 1013.7
20260904230919 75 319 4.0 6.0 0.00 0.00 0.00 36 1013.9